EW3696 Guayanilla PR US current weather conditions

sailwx.info

Wind from 341

Air temperature 24.4° C
Dewpoint 22.5° C

Last reported at 2020-Aug-11 12:01 UTC.
Time now 2020-Aug-11 12:46 UTC

Location: N 18°02' W 066°48'.
View on Google Maps.

See reports from other nearby stations

  
Tides and Currents Weather Stations Pressure Air Temp Water Temp Dewpoint Dewpoint Depression Visibility Wind Speed Wind Dir Waves Ship Positions
date/time (UTC)wind fromknots sea level pressurealtimeterstation pressurevisibilityair tempwater tempwave heightnotes
2020-Aug-11 12:01 341 24.4
2020-Aug-11 11:46 341 23.3
2020-Aug-11 11:31 339 22.8
2020-Aug-10 07:30 038 22.8
2020-Aug-10 07:15 038 22.8
2020-Aug-10 07:00 038 22.8
2020-Aug-10 06:45 038 0 gusting 1 22.8
2020-Aug-10 06:30 038 23.3
2020-Aug-10 06:15 039 23.3
2020-Aug-10 06:01 348 0 gusting 2 23.3
2020-Aug-10 05:45 348 23.3
2020-Aug-10 05:30 355 23.9
2020-Aug-10 05:16 355 23.9
2020-Aug-10 05:02 355 23.9
2020-Aug-10 04:46 355 0 gusting 1 24.4
2020-Aug-10 04:30 355 25.0
2020-Aug-10 04:15 355 0 gusting 1 25.0
2020-Aug-10 03:45 087 26.1
2020-Aug-10 03:32 087 26.7
2020-Aug-10 03:01 087 0 gusting 2 26.7
2020-Aug-10 02:46 067 26.7
2020-Aug-10 02:31 067 0 gusting 2 26.7
2020-Aug-10 02:15 067 0 gusting 2 26.7
2020-Aug-10 02:01 067 1 gusting 2 27.2
2020-Aug-10 01:45 065 0 gusting 2 27.2
2020-Aug-10 01:31 065 27.2
2020-Aug-10 01:16 061 0 gusting 2 27.8
2020-Aug-10 01:01 041 0 gusting 1 27.2
2020-Aug-10 00:46 041 27.2
2020-Aug-10 00:30 036 26.7
2020-Aug-10 00:16 031 27.2
2020-Aug-10 00:02 074 0 gusting 1 27.2
2020-Aug-09 23:45 074 27.2
2020-Aug-09 23:30 074 0 gusting 1 27.8
2020-Aug-09 23:16 074 1 gusting 2 27.2
2020-Aug-09 23:01 089 1 gusting 2 27.8
2020-Aug-09 22:46 090 0 gusting 2 29.4
2020-Aug-09 22:30 296 1 gusting 4 30.0
2020-Aug-09 22:16 292 1 gusting 4 30.0
2020-Aug-09 22:00 209 2 gusting 5 30.0
2020-Aug-09 21:45 249 2 gusting 6 30.0
2020-Aug-09 21:32 210 1 gusting 8 30.6
2020-Aug-09 21:16 169 2 gusting 6 30.0
2020-Aug-09 21:01 200 3 gusting 6 30.0
2020-Aug-09 20:45 166 3 gusting 7 29.4
2020-Aug-09 20:31 148 2 gusting 6 29.4
2020-Aug-09 20:16 128 5 gusting 10 30.6
2020-Aug-09 20:02 134 5 gusting 10 30.6
2020-Aug-09 19:47 189 4 gusting 6 31.1
2020-Aug-09 19:30 127 6 gusting 10 31.1
2020-Aug-09 19:15 151 6 gusting 14 31.7
2020-Aug-09 19:00 122 6 gusting 13 31.1
2020-Aug-09 18:47 162 6 gusting 13 31.7
2020-Aug-09 18:32 174 7 gusting 13 31.1
2020-Aug-09 18:16 119 6 gusting 14 31.1
2020-Aug-09 18:00 187 6 gusting 10 31.1
2020-Aug-09 17:45 141 6 gusting 12 31.7
2020-Aug-09 17:30 169 6 gusting 10 31.7
2020-Aug-09 17:15 188 6 gusting 13 31.7
2020-Aug-09 17:00 136 6 gusting 11 31.7
2020-Aug-09 16:45 173 6 gusting 12 31.7
2020-Aug-09 16:30 103 5 gusting 14 31.1
2020-Aug-09 16:15 126 5 gusting 11 31.1
2020-Aug-09 16:00 134 5 gusting 12 31.1
2020-Aug-09 15:46 159 6 gusting 12 31.1
2020-Aug-09 15:30 159 6 gusting 13 31.7
2020-Aug-09 15:15 237 4 gusting 13 31.1
2020-Aug-09 15:00 182 5 gusting 11 32.2
2020-Aug-09 14:45 157 2 gusting 11 31.7
2020-Aug-09 14:30 148 4 gusting 9 31.7
2020-Aug-09 14:15 129 5 gusting 7 31.1
2020-Aug-09 14:01 148 4 gusting 8 31.1
2020-Aug-09 13:46 071 3 gusting 9 30.6
2020-Aug-09 13:31 176 3 gusting 6 30.6
2020-Aug-09 13:15 140 1 gusting 6 30.0
2020-Aug-09 13:02 065 29.4
2020-Aug-09 12:46 065 29.4
2020-Aug-09 12:30 065 28.3
2020-Aug-09 12:16 065 27.2
2020-Aug-09 12:00 065 25.6